Flag for Cyprus Weather past 2 weeks in Nicosia, Cyprus

Now
95 °F

Passing clouds.


Feels Like: 94 °F
Forecast: 72 / 94 °F
Wind: 6 mph from Northwest

Location: Ercan

Current Time: Jul 23, 2014 at 1:13:51 PM

Latest Report: Jul 23, 2014 at 12:20 PM


Visibility: N/A

Pressure: 29.74 "Hg

Humidity: 28%

Dew point: 57 °F

Location of NicosiaLocation

Historic Weather in Nicosia — Graph

°F

Nicosia temperature yesterday

Maximum temperature yesterday: 97 °F (at 1:20 PM)
Minimum temperature yesterday: 70 °F (at 6:20 AM)
Average temperature yesterday: 85 °F

Past Weeks' High & Low Weather Summary

 TemperatureHumidityPressure
High102 °F (Jul 9, 3:50 PM)94% (Jul 23, 6:50 AM)29.83 "Hg (Jul 23, 6:50 AM)
Low68 °F (Jul 18, 6:20 AM)15% (Jul 8, 1:20 PM)29.59 "Hg (Jul 20, 1:50 PM)
Average83 °F56%29.72 "Hg
* Reported Jul 8 11:20 AM — Jul 23 11:20 AM, Nicosia, Weather by CustomWeather, © 2014

Note: Actual official high and low records may vary slightly from our data, if they occured in-between our weather recording intervals... More about our weather records

Advertising

Nicosia weather history for previous 24 hours

 ConditionsComfort  
Time TempWeatherWind HumidityBarometerVisibility
11:20 AM
Jul 23
93 °FPassing clouds.6 mph28%29.74 "HgN/A
10:50 AM91 °FSunny.No wind32%29.74 "Hg10 mi
8:50 AM77 °FPassing clouds.No wind89%29.77 "Hg5 mi
8:00 AM75 °FFog.No wind89%29.77 "Hg1 mi
7:20 AM73 °FFog.No wind94%29.77 "Hg0 mi
6:50 AM72 °FFog.No wind94%29.77 "Hg0 mi
6:20 AM72 °FFog.No wind88%29.74 "Hg0 mi
5:50 AM73 °FClear.No wind78%29.74 "Hg10 mi
5:20 AM72 °FClear.No wind73%29.74 "Hg10 mi
4:50 AM73 °FClear.No wind74%29.74 "Hg10 mi
4:20 AM73 °FClear.No wind74%29.74 "Hg10 mi
3:50 AM73 °FClear.No wind74%29.74 "Hg10 mi
3:20 AM75 °FClear.No wind69%29.74 "Hg10 mi
2:50 AM75 °FClear.No wind69%29.74 "Hg10 mi
7:50 PM
Jul 22
90 °FSunny.13 mph31%29.71 "Hg10 mi
7:20 PM91 °FPassing clouds.17 mph28%29.71 "HgN/A
6:50 PM93 °FPassing clouds.17 mph26%29.71 "HgN/A
6:20 PM95 °FPassing clouds.7 mph36%29.71 "HgN/A
5:50 PM95 °FPassing clouds.6 mph32%29.71 "HgN/A
5:20 PM97 °FPassing clouds.12 mph30%29.71 "HgN/A
4:50 PM95 °FScattered clouds.5 mph32%29.71 "HgN/A
4:20 PM95 °FScattered clouds.10 mph34%29.71 "HgN/A
3:50 PM93 °FScattered clouds.17 mph36%29.71 "HgN/A
3:20 PM93 °FScattered clouds.20 mph36%29.71 "HgN/A
2:50 PM95 °FScattered clouds.13 mph34%29.71 "HgN/A
2:20 PM95 °FScattered clouds.10 mph34%29.71 "HgN/A
1:50 PM97 °FScattered clouds.7 mph32%29.71 "HgN/A
1:20 PM97 °FPassing clouds.8 mph30%29.71 "HgN/A
Weather by CustomWeather, © 2014

See weather overviewHow to use our weather pages